sat.trackr.live / text

‹ back to catalog

ONEWEB-0287

NORAD 49077 · 2021-075C

PAYLOAD ACTIVE UNKNOWN

§ Identity

Operator
Country
UK
Launch date
2021-08-21
Launch site
TYMSC
Launch vehicle
Mass (kg)
RCS (m²)

Purposes: comms

External: N2YO · Heavens-Above · Gunter

§ Orbital elements

Epoch: 2026-05-25T01:58:08.702688Z

Period
109.29 min
Inclination
87.9153°
Eccentricity
0.0002121
Mean motion
13.17651496 rev/d
Perigee alt
1,192.1 km
Apogee alt
1,195.3 km
Semi-major
7,571.8 km
B*
1.3488e-4
RAAN
10.4610°
Arg perigee
93.1233°
Mean anomaly
267.0141°
Rev number
23,058

§ Raw data

ONEWEB-02871 49077U 21075C   26145.08204517  .00000065  00000+0  13488-3 0  99942 49077  87.9153  10.4610 0002121  93.1233 267.0141 13.17651496230583

JSON: /api/v1/satellites/49077 · /tle

For live sub-satellite position, see the globe view (requires WebGL).

§ Visibility from observer

Set your observer location to see the next 7 days of passes ≥ 10°. The values pass through the URL so the page stays shareable.

No JS? Fill the form by hand. The geolocation button needs JavaScript.